[[{"header":{"parameterUnit":"m.s-1","parameterCategory":2,"la1":30.2991,"la2":30.254,"lo1":-89.0895,"lo2":-89.0444,"dy":0.0017,"dx":0.0017,"nx":28,"ny":28,"refTime":"2024-07-31T03:00:00:Z","depth":"0","parameterNumber":2,"parameterNumberName":"U-component_of_CURRENTS"},"data":[0,0,0,0,0,0,0,0,0,0,0,0,0,0,0,0,0,0,0,0,0,0,0,0,0,0,0,0,0,0,0,0,0,0,0,0,0,0,0,0,0,0,0,0,0,0,0,0,0,0,0,0,0,0,0,0,0,0,-0.1708,-0.1709,0,-0.172,-0.1719,-0.1719,-0.1581,-0.1578,-0.1575,-0.1573,-0.1455,-0.1454,-0.1454,0,0,0,0,0,0,0,0,0,0,0,0,0,-0.1532,-0.1536,-0.1708,-0.1709,-0.171,-0.172,-0.1719,-0.1719,-0.1582,-0.1578,-0.1575,-0.1571,-0.1455,-0.1454,-0.1454,0,0,0,0,0,0,0,0,0,0,0,0,0,-0.1574,-0.1537,-0.1707,-0.165,-0.1646,-0.172,-0.1719,-0.1718,-0.1582,-0.1578,-0.1574,-0.157,-0.1455,-0.1454,-0.1454,-0.1536,0,0,-0.1451,-0.1451,0,0,0,0,0,0,0,0,-0.1572,-0.1579,-0.1657,-0.1654,-0.165,-0.1653,-0.1615,-0.1654,-0.1583,-0.1596,-0.1572,-0.1567,-0.1519,-0.1513,-0.1512,-0.153,-0.1525,-0.1451,-0.1451,-0.1451,-0.145,0,0,0,0,0,0,0,-0.1569,-0.1578,-0.1702,-0.1659,-0.1654,-0.1613,-0.1613,-0.1621,-0.1571,-0.1594,-0.1587,-0.1606,-0.1513,-0.1513,-0.1508,-0.1523,-0.1451,-0.1451,-0.145,-0.145,-0.1485,-0.1486,0,0,0,0,0,0,-0.1595,-0.1576,-0.1702,-0.1704,-0.161,-0.1621,-0.162,-0.1648,-0.1574,-0.1562,-0.1609,-0.1599,-0.1517,-0.1509,-0.1503,-0.1512,-0.1451,-0.145,-0.145,-0.1484,-0.1485,-0.1487,0,0,0,0,0,0,-0.1591,-0.1607,-0.1702,-0.1646,-0.1657,-0.1629,-0.1661,-0.1651,-0.1634,-0.1588,-0.1571,-0.1602,-0.1513,-0.1504,-0.1491,-0.1509,-0.145,-0.1449,-0.1482,-0.1484,-0.1486,-0.1584,0,0,0,0,0,0,-0.1586,-0.1605,-0.1629,-0.165,-0.1662,-0.1726,-0.1666,-0.1655,-0.1658,-0.1644,-0.1578,-0.1562,-0.1509,-0.1493,-0.1491,-0.1507,-0.1449,-0.148,-0.1483,-0.1485,-0.1579,-0.1589,-0.1598,0,0,0,0,0,-0.158,-0.1629,-0.163,-0.1645,-0.1697,-0.1728,-0.1728,-0.1687,-0.1663,-0.1655,-0.1613,-0.1563,-0.1506,-0.1495,-0.1492,-0.1508,-0.1479,-0.1482,-0.1485,-0.1575,-0.1587,-0.1598,0,0,0,0,0,0,-0.1573,-0.1622,-0.1622,-0.1685,-0.1699,-0.1707,-0.1719,-0.1704,-0.1672,-0.1658,-0.1595,-0.1579,-0.157,-0.1539,-0.1528,-0.1524,-0.1481,-0.1483,-0.155,-0.1561,-0.157,-0.1519,-0.1448,0,0,0,0,0,-0.1592,-0.1627,-0.1666,-0.1713,-0.1731,-0.1732,-0.1742,-0.1721,-0.1709,-0.1689,-0.1648,-0.161,-0.1591,-0.1573,-0.1547,-0.1567,-0.1505,-0.1571,-0.1581,-0.1589,-0.1545,-0.1497,-0.1497,-0.1497,-0.1497,-0.1497,0,0,-0.1609,-0.1638,-0.1661,-0.1712,-0.1725,-0.1752,-0.1722,-0.1748,-0.175,-0.1689,-0.1672,-0.1647,-0.1605,-0.1602,-0.1596,-0.1572,-0.1563,-0.1592,-0.16,-0.155,-0.15,-0.1499,-0.1499,-0.1499,-0.1498,-0.1498,0,0,-0.1654,-0.1687,-0.1726,-0.1742,-0.1775,-0.1775,-0.1788,-0.1801,-0.1777,-0.179,-0.1736,-0.1706,-0.1701,-0.1646,-0.1628,-0.168,-0.1617,-0.1699,-0.1701,-0.1659,-0.1657,-0.1655,-0.1602,-0.1595,-0.1701,-0.1701,-0.1701,0,-0.1679,-0.1719,-0.1741,-0.1775,-0.1784,-0.179,-0.1815,-0.182,-0.1815,-0.1796,-0.1784,-0.1741,-0.1705,-0.1678,-0.1684,-0.1695,-0.1666,-0.1667,-0.1668,-0.1665,-0.1661,-0.1607,-0.1597,-0.1706,-0.1705,-0.1705,-0.1704,0,-0.1736,-0.1765,-0.1793,-0.1826,-0.184,-0.1865,-0.188,-0.1879,-0.1869,-0.1855,-0.183,-0.1792,-0.1737,-0.1756,-0.1734,-0.1703,-0.1691,-0.1691,-0.1637,-0.1666,-0.1609,-0.1597,-0.1713,-0.1711,-0.171,-0.1709,0,0,-0.1785,-0.1827,-0.1828,-0.1827,-0.1858,-0.187,-0.1892,-0.1888,-0.1868,-0.1874,-0.1834,-0.1818,-0.1777,-0.175,-0.1731,-0.1701,-0.1663,-0.1691,-0.1686,-0.163,-0.157,-0.1392,-0.1361,-0.1684,-0.1682,-0.1681,-0.1551,0,-0.1812,-0.1859,-0.1871,-0.1888,-0.1904,-0.1903,-0.1907,-0.1902,-0.1886,-0.1852,-0.1824,-0.1785,-0.1788,-0.1759,-0.1732,-0.1675,-0.1632,-0.1697,-0.1552,-0.1546,-0.1378,-0.134,-0.1169,-0.1023,-0.1538,-0.1536,-0.1535,0,-0.1825,-0.1856,-0.1886,-0.1877,-0.1885,-0.1897,-0.1863,-0.1869,-0.1839,-0.1815,-0.178,-0.1758,-0.1702,-0.1706,-0.1607,-0.166,-0.16,-0.1567,-0.1562,-0.1333,-0.1342,-0.1071,-0.098,-0.1073,-0.1515,-0.1516,-0.1518,0,-0.178,-0.1831,-0.184,-0.1848,-0.1875,-0.187,-0.1871,-0.1851,-0.1802,-0.178,-0.1715,-0.1699,-0.1614,-0.1598,-0.151,-0.1568,-0.1389,-0.1458,-0.1238,-0.1227,-0.1007,-0.0977,-0.0964,-0.1355,-0.1356,-0.1356,-0.1356,0,-0.1757,-0.1749,-0.1823,-0.1829,-0.1804,-0.1844,-0.1789,-0.1782,-0.1735,-0.1616,-0.1673,-0.1526,-0.1578,-0.1485,-0.1478,-0.1279,-0.1349,-0.1186,-0.1158,-0.104,-0.1015,-0.1024,-0.1112,-0.1351,-0.1352,-0.1353,-0.1354,0,-0.1657,-0.1718,-0.172,-0.1776,-0.1774,-0.1753,-0.1702,-0.1634,-0.1633,-0.1474,-0.1452,-0.1365,-0.1195,-0.1229,-0.1138,-0.1144,-0.102,-0.0964,-0.081,-0.0763,-0.0651,-0.0749,-0.0642,-0.0614,-0.0713,-0.0708,-0.0703,0,-0.1588,-0.1595,-0.1651,-0.1624,-0.1638,-0.1613,-0.1546,-0.1554,-0.1462,-0.1302,-0.118,-0.1017,-0.0779,-0.0621,-0.0597,-0.0539,-0.0694,-0.0418,-0.047,-0.0562,-0.0655,-0.0789,-0.0787,-0.025,-0.0242,-0.0236,-0.023,0,-0.1438,-0.1475,-0.1479,-0.1457,-0.1408,-0.1344,-0.1273,-0.1196,-0.1138,-0.101,-0.0746,-0.0564,-0.0299,-0.0073,-0.0024,-0.003,-0.0424,-0.0274,-0.0412,-0.0285,-0.0383,-0.0369,-0.0449,-0.0172,-0.0178,-0.0182,-0.0185,-0.0187,-0.1273,-0.1246,-0.1261,-0.121,-0.116,-0.1054,-0.0963,-0.0876,-0.0712,-0.0493,-0.0375,-0.0073,0.0213,0.04,0.0323,0.0255,0.0136,0.0192,0.0081,-0.005,-0.0004,0.0074,0.0406,0.0404,0.0402,0.04,0.0398,0,-0.1017,-0.1015,-0.0984,-0.0926,-0.0812,-0.0866,-0.0729,-0.0625,-0.0402,-0.0215,0.0014,0.0411,0.0673,0.07,0.0733,0.0584,0.0407,0.0444,0.0237,0.0223,0.0287,0.0325,0.071,0.071,0.071,0.071,0.071,0.071,-0.0869,-0.0762,-0.0777,-0.0571,-0.0545,-0.0371,-0.0289,-0.0185,-0.0072,0.0235,0.0447,0.0614,0.0786,0.081,0.0659,0.0577,0.0331,0.0379,0.0197,0.0155,0.0118,0.0083,0.0095,0.0426,0.0425,0.0199,0.0197,0.0195]},{"header":{"parameterUnit":"m.s-1","parameterCategory":2,"la1":30.2991,"la2":30.254,"lo1":-89.0895,"lo2":-89.0444,"dy":0.0017,"dx":0.0017,"nx":28,"ny":28,"refTime":"2024-07-31T03:00:00:Z","depth":"0","parameterNumber":3,"parameterNumberName":"V-component_of_CURRENTS"},"data":[0,0,0,0,0,0,0,0,0,0,0,0,0,0,0,0,0,0,0,0,0,0,0,0,0,0,0,0,0,0,0,0,0,0,0,0,0,0,0,0,0,0,0,0,0,0,0,0,0,0,0,0,0,0,0,0,0,0,-0.042,-0.0419,0,-0.0405,-0.0405,-0.0405,-0.0349,-0.0347,-0.0346,-0.0344,-0.0344,-0.0345,-0.0347,0,0,0,0,0,0,0,0,0,0,0,0,0,-0.0344,-0.0346,-0.042,-0.0419,-0.0419,-0.0405,-0.0405,-0.0405,-0.0349,-0.0347,-0.0346,-0.0344,-0.0344,-0.0345,-0.0347,0,0,0,0,0,0,0,0,0,0,0,0,0,-0.036,-0.0347,-0.042,-0.0388,-0.0385,-0.0405,-0.0405,-0.0405,-0.0349,-0.0347,-0.0345,-0.0343,-0.0343,-0.0345,-0.0347,-0.0403,0,0,-0.0353,-0.0354,0,0,0,0,0,0,0,0,-0.0359,-0.0363,-0.0393,-0.039,-0.0387,-0.0374,-0.0377,-0.0404,-0.035,-0.0365,-0.0344,-0.0342,-0.0356,-0.0357,-0.0361,-0.0403,-0.0403,-0.0353,-0.0355,-0.0356,-0.0356,0,0,0,0,0,0,0,-0.0358,-0.0363,-0.0416,-0.0393,-0.0389,-0.0355,-0.0355,-0.0382,-0.0375,-0.0364,-0.0359,-0.0355,-0.0354,-0.036,-0.0361,-0.0403,-0.0353,-0.0355,-0.0356,-0.0357,-0.0409,-0.0409,0,0,0,0,0,0,-0.0362,-0.0363,-0.0416,-0.0415,-0.0365,-0.0358,-0.0359,-0.0382,-0.0374,-0.037,-0.0357,-0.0352,-0.0357,-0.0359,-0.0361,-0.0353,-0.0355,-0.0357,-0.0359,-0.0409,-0.0409,-0.041,0,0,0,0,0,0,-0.0361,-0.0368,-0.0417,-0.0384,-0.0388,-0.0362,-0.0389,-0.0383,-0.0375,-0.0368,-0.0364,-0.0352,-0.0356,-0.0358,-0.0379,-0.0355,-0.0358,-0.036,-0.0409,-0.0409,-0.0409,-0.0384,0,0,0,0,0,0,-0.0359,-0.0369,-0.0389,-0.0386,-0.039,-0.0431,-0.039,-0.0384,-0.0376,-0.0369,-0.0364,-0.0362,-0.0354,-0.0376,-0.0381,-0.0358,-0.0362,-0.0409,-0.0409,-0.0409,-0.0385,-0.0384,-0.0383,0,0,0,0,0,-0.0357,-0.0404,-0.0391,-0.0397,-0.042,-0.0432,-0.0432,-0.0405,-0.0378,-0.0387,-0.0378,-0.0361,-0.038,-0.038,-0.0385,-0.0361,-0.0409,-0.0409,-0.0409,-0.0386,-0.0384,-0.0383,0,0,0,0,0,0,-0.0388,-0.0402,-0.0388,-0.0438,-0.0431,-0.0421,-0.0434,-0.0409,-0.041,-0.0402,-0.0385,-0.0385,-0.0391,-0.0393,-0.0392,-0.0377,-0.0384,-0.0386,-0.0364,-0.0363,-0.0362,-0.0328,-0.0363,0,0,0,0,0,-0.0405,-0.0443,-0.0434,-0.0475,-0.0473,-0.0451,-0.0452,-0.0431,-0.0428,-0.0424,-0.0417,-0.0408,-0.0402,-0.0396,-0.0407,-0.0415,-0.0384,-0.0397,-0.0396,-0.0395,-0.0372,-0.0306,-0.0295,-0.0411,-0.0411,-0.0411,0,0,-0.0428,-0.0442,-0.0462,-0.0483,-0.0478,-0.0483,-0.0447,-0.0455,-0.0448,-0.0429,-0.0433,-0.0421,-0.041,-0.0407,-0.0406,-0.0399,-0.0353,-0.0396,-0.0394,-0.0371,-0.0305,-0.0293,-0.0282,-0.0411,-0.0411,-0.0411,0,0,-0.0488,-0.0506,-0.0544,-0.0543,-0.0536,-0.0517,-0.0516,-0.0503,-0.0485,-0.0499,-0.046,-0.0421,-0.0456,-0.0397,-0.0382,-0.0385,-0.036,-0.0401,-0.0352,-0.0289,-0.0277,-0.0267,-0.0233,-0.022,-0.0385,-0.0385,-0.0385,0,-0.051,-0.0554,-0.0555,-0.0579,-0.0568,-0.0531,-0.0538,-0.053,-0.052,-0.0482,-0.0504,-0.0444,-0.0436,-0.0357,-0.0352,-0.0374,-0.0357,-0.0356,-0.0283,-0.0272,-0.0262,-0.0229,-0.0215,-0.0384,-0.0384,-0.0384,-0.0384,0,-0.0585,-0.0606,-0.063,-0.0639,-0.0632,-0.064,-0.0608,-0.0589,-0.0562,-0.0522,-0.0462,-0.0439,-0.0376,-0.0371,-0.0369,-0.0274,-0.0294,-0.0299,-0.0278,-0.0248,-0.0217,-0.0203,-0.0382,-0.0382,-0.0383,-0.0383,0,0,-0.0655,-0.0674,-0.0678,-0.0661,-0.0654,-0.0643,-0.0631,-0.0571,-0.0516,-0.0498,-0.0424,-0.0378,-0.0318,-0.0295,-0.0258,-0.0197,-0.0119,-0.0219,-0.0216,-0.0171,-0.0004,0.0025,0.0043,-0.0118,-0.0115,-0.0112,-0.0019,0,-0.0697,-0.0733,-0.0731,-0.0727,-0.0723,-0.0672,-0.0649,-0.0586,-0.0537,-0.0468,-0.0379,-0.0323,-0.0304,-0.0265,-0.0192,-0.0149,-0.0077,-0.0145,-0.0052,-0.0049,-0.0013,0.0064,0.015,0.0246,-0.0004,-0.0002,-0.0,0,-0.0756,-0.0761,-0.0776,-0.0719,-0.071,-0.0703,-0.0601,-0.0573,-0.0462,-0.042,-0.0314,-0.0268,-0.0149,-0.0167,-0.0018,-0.0071,-0.0024,0.0008,0.0012,0.005,0.001,0.0178,0.0282,0.0327,0.0023,0.0021,0.0019,0,-0.0776,-0.0776,-0.0774,-0.0769,-0.072,-0.0692,-0.0647,-0.0547,-0.0479,-0.0377,-0.0319,-0.0192,-0.0118,-0.0043,0.0043,0.0004,0.0182,0.0137,0.022,0.0219,0.0323,0.0328,0.0504,0.0261,0.0261,0.0261,0.0261,0,-0.0813,-0.0801,-0.0781,-0.0782,-0.0726,-0.0695,-0.0607,-0.0549,-0.0444,-0.0331,-0.028,-0.017,-0.0084,0.0025,0.0069,0.0209,0.0219,0.0261,0.0269,0.0328,0.0332,0.0397,0.0378,0.0264,0.0263,0.0263,0.0262,0,-0.0832,-0.0835,-0.0816,-0.0772,-0.0743,-0.0703,-0.0584,-0.0501,-0.0432,-0.0295,-0.0263,-0.0127,0.002,0.0108,0.0243,0.027,0.0426,0.0415,0.0464,0.0477,0.0557,0.0535,0.0709,0.0794,0.0504,0.0505,0.0507,0,-0.0839,-0.0845,-0.0805,-0.0767,-0.0747,-0.0668,-0.0588,-0.0498,-0.0404,-0.0243,-0.0167,-0.0012,0.0147,0.034,0.0439,0.0549,0.0563,0.0641,0.0601,0.0617,0.0598,0.057,0.0627,0.0732,0.0736,0.0738,0.074,0,-0.0827,-0.0831,-0.0808,-0.074,-0.0674,-0.0573,-0.0468,-0.0401,-0.0271,-0.0167,0.0004,0.0122,0.0344,0.0534,0.0661,0.0718,0.0702,0.0694,0.0731,0.0828,0.0796,0.0862,0.0576,0.0763,0.0761,0.0759,0.0758,0.0757,-0.0789,-0.0776,-0.0745,-0.0666,-0.0588,-0.0472,-0.0375,-0.0253,-0.0105,0.0097,0.015,0.0378,0.0587,0.0808,0.0844,0.0965,0.0916,0.0979,0.0959,0.0934,0.1015,0.0761,0.0938,0.0937,0.0936,0.0935,0.0934,0,-0.0699,-0.069,-0.0642,-0.0546,-0.0438,-0.0416,-0.0262,-0.0136,0.0053,0.0226,0.0398,0.0718,0.0911,0.1039,0.1185,0.1215,0.1229,0.1231,0.1233,0.1285,0.1101,0.1111,0.1311,0.1311,0.1311,0.1311,0.1311,0.1311,-0.0641,-0.0588,-0.0575,-0.0398,-0.0331,-0.0169,-0.008,0.0093,0.0246,0.0557,0.0789,0.0956,0.1166,0.1229,0.1349,0.1384,0.1442,0.144,0.145,0.1312,0.1286,0.1262,0.1271,0.1502,0.1502,0.1696,0.1697,0.1698]}],[{"header":{"parameterUnit":"m.s-1","parameterCategory":2,"la1":30.2991,"la2":30.254,"lo1":-89.0895,"lo2":-89.0444,"dy":0.0017,"dx":0.0017,"nx":28,"ny":28,"refTime":"2024-07-31T03:00:00:Z","depth":"2","parameterNumber":2,"parameterNumberName":"U-component_of_CURRENTS"},"data":[0,0,0,0,0,0,0,0,0,0,0,0,0,0,0,0,0,0,0,0,0,0,0,0,0,0,0,0,0,0,0,0,0,0,0,0,0,0,0,0,0,0,0,0,0,0,0,0,0,0,0,0,0,0,0,0,0,0,-0.2569,-0.2571,0,-0.2661,-0.2661,-0.2662,-0.2836,-0.284,-0.2844,-0.2848,-0.2974,-0.2973,-0.2973,0,0,0,0,0,0,0,0,0,0,0,0,0,-0.2652,-0.2648,-0.2569,-0.2571,-0.2572,-0.266,-0.2661,-0.2662,-0.2836,-0.284,-0.2845,-0.2849,-0.2974,-0.2973,-0.2973,0,0,0,0,0,0,0,0,0,0,0,0,0,-0.2661,-0.2647,-0.2569,-0.2674,-0.2684,-0.266,-0.2661,-0.2662,-0.2835,-0.284,-0.2846,-0.2852,-0.2974,-0.2973,-0.2973,-0.2853,0,0,-0.2972,-0.2972,0,0,0,0,0,0,0,0,-0.266,-0.2657,-0.2657,-0.2667,-0.2679,-0.2748,-0.2737,-0.273,-0.2833,-0.2772,-0.2848,-0.2855,-0.29,-0.2906,-0.2902,-0.2859,-0.2864,-0.2972,-0.2971,-0.2971,-0.2971,0,0,0,0,0,0,0,-0.2659,-0.2655,-0.26,-0.2658,-0.2671,-0.2754,-0.2759,-0.2736,-0.2798,-0.2777,-0.2792,-0.2809,-0.2907,-0.2902,-0.2907,-0.2866,-0.2972,-0.2971,-0.2971,-0.2971,-0.289,-0.2888,0,0,0,0,0,0,-0.2646,-0.2652,-0.2597,-0.2603,-0.269,-0.2747,-0.2754,-0.2715,-0.2798,-0.2818,-0.2804,-0.2817,-0.29,-0.2907,-0.2912,-0.294,-0.2971,-0.2971,-0.2971,-0.2892,-0.289,-0.2887,0,0,0,0,0,0,-0.2646,-0.2637,-0.2593,-0.2639,-0.264,-0.2739,-0.2695,-0.2714,-0.2792,-0.2819,-0.284,-0.2873,-0.2905,-0.2913,-0.2949,-0.2941,-0.2971,-0.297,-0.2894,-0.2891,-0.2889,-0.289,0,0,0,0,0,0,-0.2647,-0.2635,-0.2623,-0.2635,-0.2637,-0.263,-0.269,-0.2712,-0.2791,-0.2811,-0.2882,-0.2896,-0.291,-0.2949,-0.2949,-0.2941,-0.297,-0.2896,-0.2893,-0.2889,-0.2892,-0.2888,-0.2884,0,0,0,0,0,-0.2648,-0.2609,-0.2619,-0.2616,-0.2607,-0.2631,-0.264,-0.2728,-0.2789,-0.282,-0.2867,-0.2898,-0.2926,-0.2948,-0.2947,-0.2939,-0.2898,-0.2894,-0.289,-0.2894,-0.2889,-0.2884,0,0,0,0,0,0,-0.2648,-0.2623,-0.2636,-0.2593,-0.2634,-0.2665,-0.2686,-0.2752,-0.2807,-0.2826,-0.2879,-0.2893,-0.292,-0.2913,-0.2937,-0.2899,-0.2912,-0.2908,-0.2916,-0.2911,-0.2906,-0.2871,-0.297,0,0,0,0,0,-0.2629,-0.2589,-0.2605,-0.2578,-0.2585,-0.2642,-0.2672,-0.2724,-0.2766,-0.2802,-0.2864,-0.2885,-0.2877,-0.2894,-0.289,-0.2866,-0.2803,-0.2854,-0.2849,-0.2846,-0.2812,-0.2685,-0.2666,-0.2873,-0.2874,-0.2874,0,0,-0.2625,-0.2604,-0.2587,-0.2577,-0.2596,-0.2614,-0.2675,-0.2709,-0.2756,-0.2794,-0.288,-0.2883,-0.2869,-0.2857,-0.2865,-0.2869,-0.2759,-0.2841,-0.2838,-0.2806,-0.2678,-0.2658,-0.264,-0.2871,-0.2871,-0.2872,0,0,-0.2586,-0.2565,-0.2525,-0.2558,-0.2589,-0.2613,-0.2641,-0.2699,-0.276,-0.2808,-0.2837,-0.2833,-0.2869,-0.2834,-0.2819,-0.2774,-0.2745,-0.2788,-0.2735,-0.2614,-0.2595,-0.2578,-0.2497,-0.2473,-0.278,-0.278,-0.278,0,-0.259,-0.2526,-0.2533,-0.2528,-0.2557,-0.2622,-0.2629,-0.2678,-0.2764,-0.2763,-0.2847,-0.2814,-0.2839,-0.2753,-0.2756,-0.2764,-0.2701,-0.277,-0.2607,-0.2589,-0.2571,-0.2492,-0.2465,-0.2779,-0.2779,-0.2779,-0.278,0,-0.2524,-0.2513,-0.2496,-0.2495,-0.2535,-0.2543,-0.261,-0.2657,-0.2734,-0.2759,-0.2746,-0.2756,-0.272,-0.2732,-0.2746,-0.262,-0.2621,-0.2625,-0.2625,-0.255,-0.2472,-0.2444,-0.2779,-0.2779,-0.2779,-0.2779,0,0,-0.2421,-0.2439,-0.2446,-0.2441,-0.2516,-0.2519,-0.2581,-0.2596,-0.2583,-0.2669,-0.263,-0.2633,-0.2619,-0.2596,-0.2595,-0.2509,-0.2371,-0.2521,-0.2515,-0.2447,-0.2117,-0.2021,-0.1982,-0.2347,-0.2342,-0.2338,-0.2122,0,-0.2368,-0.2344,-0.2383,-0.239,-0.2375,-0.2459,-0.2494,-0.2527,-0.2566,-0.2549,-0.2532,-0.2497,-0.2574,-0.2537,-0.2466,-0.2395,-0.2292,-0.243,-0.2191,-0.2184,-0.2111,-0.1942,-0.194,-0.1737,-0.2094,-0.209,-0.2086,0,-0.2275,-0.2274,-0.2274,-0.2287,-0.2286,-0.2325,-0.2332,-0.2368,-0.2357,-0.2371,-0.233,-0.2336,-0.2248,-0.2317,-0.2142,-0.223,-0.2158,-0.2108,-0.2098,-0.1976,-0.2031,-0.1861,-0.1672,-0.2039,-0.2042,-0.2046,-0.2049,0,-0.216,-0.2177,-0.2169,-0.2193,-0.224,-0.2255,-0.2281,-0.2302,-0.2285,-0.2241,-0.2196,-0.2125,-0.2064,-0.1981,-0.1952,-0.2019,-0.174,-0.1815,-0.1647,-0.1644,-0.1571,-0.1568,-0.1615,-0.1615,-0.1616,-0.1617,-0.1617,0,-0.2056,-0.2047,-0.2116,-0.212,-0.2082,-0.2159,-0.2109,-0.2129,-0.211,-0.2019,-0.2081,-0.1983,-0.1969,-0.1859,-0.1845,-0.165,-0.1645,-0.157,-0.154,-0.1575,-0.1574,-0.1788,-0.1811,-0.1609,-0.161,-0.1612,-0.1613,0,-0.1938,-0.1988,-0.1956,-0.2011,-0.2033,-0.2004,-0.2028,-0.1969,-0.1983,-0.187,-0.1849,-0.1818,-0.1656,-0.1634,-0.1462,-0.1466,-0.1326,-0.1251,-0.1318,-0.1296,-0.1347,-0.1373,-0.1019,-0.1013,-0.1008,-0.1004,-0.1,0,-0.1869,-0.1853,-0.1884,-0.1857,-0.1893,-0.188,-0.1868,-0.1903,-0.1857,-0.1753,-0.1682,-0.1522,-0.1434,-0.1199,-0.11,-0.0976,-0.1076,-0.0909,-0.101,-0.1258,-0.1266,-0.13,-0.1332,-0.0944,-0.0941,-0.0938,-0.0935,0,-0.1744,-0.1771,-0.1754,-0.1712,-0.1699,-0.1653,-0.1657,-0.162,-0.1614,-0.1532,-0.1386,-0.1318,-0.1104,-0.0991,-0.0849,-0.0775,-0.0945,-0.0834,-0.0995,-0.1097,-0.1168,-0.1184,-0.1221,-0.0907,-0.091,-0.0912,-0.0914,-0.0915,-0.1651,-0.1599,-0.1587,-0.1517,-0.1478,-0.1422,-0.1355,-0.1342,-0.1249,-0.1104,-0.1143,-0.098,-0.1067,-0.076,-0.0678,-0.0523,-0.0611,-0.067,-0.0688,-0.0707,-0.0737,-0.0794,-0.0472,-0.0472,-0.0472,-0.0473,-0.0473,0,-0.1519,-0.1471,-0.1394,-0.1305,-0.1197,-0.1227,-0.1184,-0.1107,-0.0956,-0.0837,-0.0734,-0.0687,-0.0678,-0.0626,-0.0407,-0.0411,-0.0445,-0.0352,-0.0508,-0.0537,-0.0562,-0.0593,-0.0284,-0.0283,-0.0281,-0.028,0,0,-0.1439,-0.1339,-0.1283,-0.1057,-0.0974,-0.0801,-0.074,-0.0661,-0.0576,-0.0418,-0.0298,-0.044,-0.058,-0.0425,-0.0464,-0.0327,-0.0368,-0.0235,-0.0402,-0.0609,-0.0631,-0.0777,-0.0858,0,0,0,0,0]},{"header":{"parameterUnit":"m.s-1","parameterCategory":2,"la1":30.2991,"la2":30.254,"lo1":-89.0895,"lo2":-89.0444,"dy":0.0017,"dx":0.0017,"nx":28,"ny":28,"refTime":"2024-07-31T03:00:00:Z","depth":"2","parameterNumber":3,"parameterNumberName":"V-component_of_CURRENTS"},"data":[0,0,0,0,0,0,0,0,0,0,0,0,0,0,0,0,0,0,0,0,0,0,0,0,0,0,0,0,0,0,0,0,0,0,0,0,0,0,0,0,0,0,0,0,0,0,0,0,0,0,0,0,0,0,0,0,0,0,-0.0159,-0.0158,0,-0.0053,-0.0052,-0.0051,0.0114,0.0117,0.012,0.0123,0.047,0.0476,0.0483,0,0,0,0,0,0,0,0,0,0,0,0,0,-0.021,-0.021,-0.0159,-0.0157,-0.0156,-0.0053,-0.0052,-0.0051,0.0113,0.0117,0.0121,0.0125,0.0468,0.0476,0.0483,0,0,0,0,0,0,0,0,0,0,0,0,0,-0.0157,-0.021,-0.0159,-0.006,-0.005,-0.0054,-0.0052,-0.0051,0.0112,0.0117,0.0122,0.0126,0.0466,0.0475,0.0484,0.0446,0,0,0.0513,0.0517,0,0,0,0,0,0,0,0,-0.016,-0.0156,-0.0076,-0.0067,-0.0055,0.0024,0.0057,0.0128,0.0111,0.0048,0.0123,0.0129,0.0342,0.0362,0.0364,0.0462,0.0477,0.0514,0.0519,0.0524,0.0526,0,0,0,0,0,0,0,-0.0164,-0.0159,-0.012,-0.0075,-0.0062,-0.0017,-0.0005,0.007,0.0169,0.0054,0.0067,0.0081,0.035,0.0354,0.0374,0.0482,0.0514,0.0522,0.0528,0.0531,0.0832,0.0834,0,0,0,0,0,0,-0.0178,-0.0164,-0.0123,-0.0116,-0.0094,-0.002,-0.0006,-0.0008,0.0163,0.0193,0.0077,0.0088,0.0335,0.0362,0.0387,0.0522,0.0523,0.0532,0.0538,0.083,0.0833,0.0835,0,0,0,0,0,0,-0.018,-0.0177,-0.0127,-0.0134,-0.0124,-0.0024,-0.0028,-0.0009,0.0045,0.0179,0.0214,0.0118,0.034,0.0374,0.0498,0.0532,0.0536,0.0545,0.0827,0.0831,0.0834,0.0685,0,0,0,0,0,0,-0.0183,-0.0179,-0.0189,-0.0136,-0.0124,-0.01,-0.0032,-0.001,0.0045,0.0063,0.0224,0.0258,0.0347,0.0483,0.0507,0.0545,0.0552,0.0824,0.0829,0.0833,0.0687,0.0683,0.068,0,0,0,0,0,-0.0185,-0.0205,-0.0191,-0.0185,-0.0141,-0.01,-0.009,-0.0004,0.0043,0.0062,0.0178,0.0256,0.0531,0.0491,0.0519,0.056,0.0822,0.0827,0.0833,0.0689,0.0684,0.068,0,0,0,0,0,0,-0.0229,-0.019,-0.0171,-0.0178,-0.0133,-0.007,-0.0056,-0.0001,0.0093,0.0118,0.0256,0.0298,0.0437,0.0514,0.0466,0.0669,0.0701,0.0712,0.0582,0.0579,0.0575,0.0524,0.056,0,0,0,0,0,-0.0253,-0.0258,-0.0206,-0.0213,-0.0196,-0.013,-0.0104,-0.0051,0.0036,0.0082,0.0209,0.0345,0.0465,0.0533,0.0655,0.0726,0.074,0.0788,0.0784,0.0779,0.0763,0.074,0.0729,0.0853,0.0853,0.0853,0,0,-0.0273,-0.0254,-0.0255,-0.0223,-0.0189,-0.0155,-0.01,-0.0066,0.0002,0.0104,0.0244,0.034,0.0488,0.0596,0.0665,0.0669,0.0764,0.0786,0.078,0.0767,0.0744,0.073,0.0718,0.0856,0.0856,0.0855,0,0,-0.0309,-0.0301,-0.0309,-0.0275,-0.0228,-0.0181,-0.0163,-0.008,0.0,0.0114,0.0217,0.0308,0.0517,0.059,0.0663,0.0706,0.0754,0.0782,0.0703,0.0679,0.0666,0.0654,0.0678,0.067,0.0766,0.0765,0.0765,0,-0.0331,-0.0336,-0.0302,-0.029,-0.0261,-0.0184,-0.0167,-0.0085,0.0045,0.0083,0.0171,0.0389,0.0513,0.059,0.0624,0.0692,0.0695,0.0691,0.0662,0.0651,0.0642,0.0669,0.0661,0.0759,0.076,0.076,0.0761,0,-0.0359,-0.0356,-0.0357,-0.0312,-0.0275,-0.0256,-0.0148,-0.0085,0.0023,0.0095,0.0219,0.0351,0.0463,0.0532,0.0603,0.0606,0.0638,0.0656,0.0641,0.0618,0.0652,0.0646,0.0749,0.0752,0.0754,0.0755,0,0,-0.0422,-0.0385,-0.0384,-0.0375,-0.029,-0.0269,-0.0173,-0.0096,-0.0062,0.009,0.0133,0.0323,0.0345,0.0427,0.0502,0.0489,0.0446,0.0532,0.0534,0.05,0.0411,0.0474,0.0475,0.0428,0.0426,0.0424,0.0466,0,-0.0449,-0.0451,-0.041,-0.0387,-0.0375,-0.0295,-0.0222,-0.0144,-0.004,0.0026,0.0133,0.0227,0.0327,0.0352,0.0354,0.0441,0.0422,0.0436,0.0489,0.0492,0.0502,0.0467,0.0439,0.0475,0.0461,0.046,0.046,0,-0.0476,-0.0477,-0.0477,-0.0445,-0.0435,-0.0405,-0.0341,-0.0262,-0.0168,-0.0095,-0.0035,0.0062,0.0121,0.0189,0.0271,0.0268,0.0321,0.0372,0.0374,0.0474,0.0543,0.0501,0.0466,0.0451,0.0452,0.0452,0.0453,0,-0.0537,-0.0518,-0.0528,-0.0511,-0.0458,-0.0451,-0.0409,-0.0323,-0.0259,-0.0198,-0.0164,-0.0088,-0.0006,0.0034,0.0219,0.0212,0.0295,0.03,0.0401,0.0409,0.042,0.0431,0.0292,0.0292,0.0292,0.0292,0.0292,0,-0.0571,-0.0581,-0.0569,-0.0576,-0.059,-0.0528,-0.0515,-0.0469,-0.0395,-0.034,-0.0249,-0.0189,-0.0049,0.0057,0.0154,0.0299,0.0253,0.0376,0.0406,0.0379,0.0386,0.0397,0.0408,0.0294,0.0293,0.0293,0.0293,0,-0.0623,-0.0612,-0.0633,-0.0622,-0.0619,-0.0628,-0.0563,-0.0542,-0.0481,-0.0412,-0.0392,-0.0251,-0.0099,0.0062,0.0182,0.0259,0.0354,0.0406,0.0404,0.0431,0.0489,0.0494,0.0474,0.0476,0.0478,0.0479,0.0481,0,-0.0649,-0.0667,-0.0684,-0.0688,-0.0686,-0.0677,-0.0655,-0.0589,-0.0542,-0.0428,-0.0396,-0.0241,-0.0108,0.0116,0.0308,0.0476,0.0447,0.048,0.045,0.0468,0.0499,0.0501,0.0503,0.0423,0.0424,0.0424,0.0425,0,-0.0703,-0.0714,-0.0731,-0.0734,-0.0732,-0.0706,-0.0669,-0.0656,-0.0551,-0.0481,-0.0368,-0.0279,-0.0017,0.0179,0.0413,0.049,0.0448,0.0497,0.0483,0.0392,0.0426,0.0455,0.0457,0.043,0.043,0.0429,0.0429,0.0429,-0.0746,-0.0768,-0.0773,-0.0764,-0.0742,-0.0702,-0.0663,-0.0596,-0.051,-0.0373,-0.0348,-0.0197,-0.0059,0.0307,0.0444,0.0587,0.0591,0.053,0.0524,0.0519,0.0516,0.0552,0.0582,0.0582,0.0583,0.0583,0.0583,0,-0.0793,-0.0787,-0.0785,-0.0765,-0.0716,-0.0674,-0.0622,-0.0551,-0.0418,-0.0329,-0.0206,-0.0094,0.0087,0.0252,0.0509,0.0606,0.058,0.0563,0.0488,0.0484,0.0479,0.0471,0.0526,0.0526,0.0526,0.0526,0,0,-0.0817,-0.0828,-0.0805,-0.0722,-0.0662,-0.0537,-0.0477,-0.0377,-0.029,-0.018,-0.0089,-0.0034,0.0111,0.0235,0.0368,0.0475,0.0452,0.0472,0.051,0.0406,0.04,0.0455,0.0437,0,0,0,0,0]}],[{"header":{"parameterUnit":"m.s-1","parameterCategory":2,"la1":30.2991,"la2":30.254,"lo1":-89.0895,"lo2":-89.0444,"dy":0.0017,"dx":0.0017,"nx":28,"ny":28,"refTime":"2024-07-31T03:00:00:Z","depth":"4","parameterNumber":2,"parameterNumberName":"U-component_of_CURRENTS"},"data":[0,0,0,0,0,0,0,0,0,0,0,0,0,0,0,0,0,0,0,0,0,0,0,0,0,0,0,0,0,0,0,0,0,0,0,0,0,0,0,0,0,0,0,0,0,0,0,0,0,0,0,0,0,0,0,0,0,0,-0.1219,-0.122,0,-0.1275,-0.1276,-0.1276,-0.1287,-0.1287,-0.1286,-0.1286,-0.134,-0.1342,-0.1344,0,0,0,0,0,0,0,0,0,0,0,0,0,-0.1113,-0.1114,-0.1219,-0.122,-0.1221,-0.1275,-0.1276,-0.1276,-0.1287,-0.1287,-0.1286,-0.1286,-0.134,-0.1342,-0.1344,0,0,0,0,0,0,0,0,0,0,0,0,0,-0.1161,-0.1115,-0.1219,-0.1234,-0.1236,-0.1275,-0.1276,-0.1276,-0.1287,-0.1287,-0.1286,-0.1286,-0.1339,-0.1342,-0.1344,-0.1368,0,0,-0.1352,-0.1353,0,0,0,0,0,0,0,0,-0.1158,-0.1164,-0.1231,-0.1233,-0.1236,-0.1276,-0.1258,-0.1308,-0.1287,-0.1266,-0.1286,-0.1286,-0.132,-0.1324,-0.1333,-0.137,-0.1372,-0.1352,-0.1354,-0.1355,-0.1355,0,0,0,0,0,0,0,-0.1155,-0.1162,-0.1239,-0.1232,-0.1235,-0.1236,-0.1242,-0.1267,-0.1293,-0.1267,-0.1269,-0.1279,-0.1321,-0.133,-0.1334,-0.1373,-0.1352,-0.1354,-0.1356,-0.1357,-0.1496,-0.1498,0,0,0,0,0,0,-0.1153,-0.1159,-0.1238,-0.1241,-0.1198,-0.1238,-0.1245,-0.1261,-0.1293,-0.1298,-0.1279,-0.1279,-0.1326,-0.1331,-0.1336,-0.1388,-0.1355,-0.1357,-0.1359,-0.1494,-0.1497,-0.1499,0,0,0,0,0,0,-0.1151,-0.116,-0.1235,-0.1202,-0.1212,-0.1241,-0.1259,-0.1263,-0.1287,-0.1302,-0.1306,-0.1301,-0.1326,-0.1333,-0.1386,-0.1389,-0.1358,-0.1361,-0.1491,-0.1495,-0.1498,-0.1478,0,0,0,0,0,0,-0.1148,-0.1159,-0.1178,-0.1203,-0.1214,-0.1266,-0.126,-0.1264,-0.1294,-0.1295,-0.1322,-0.1326,-0.1326,-0.1382,-0.1388,-0.1392,-0.1363,-0.1489,-0.1493,-0.1497,-0.1476,-0.148,-0.1484,0,0,0,0,0,-0.1144,-0.1169,-0.1179,-0.1189,-0.1237,-0.1267,-0.1273,-0.129,-0.1296,-0.131,-0.1341,-0.1326,-0.1412,-0.1386,-0.1393,-0.1397,-0.1487,-0.1492,-0.1497,-0.1474,-0.1479,-0.1484,0,0,0,0,0,0,-0.1133,-0.1174,-0.1184,-0.1221,-0.1246,-0.127,-0.1292,-0.1303,-0.1338,-0.135,-0.1356,-0.1363,-0.1406,-0.1423,-0.1394,-0.1457,-0.1447,-0.1453,-0.1427,-0.1432,-0.1436,-0.1422,-0.1365,0,0,0,0,0,-0.114,-0.1173,-0.1202,-0.1235,-0.1249,-0.1275,-0.1293,-0.1309,-0.134,-0.1355,-0.1374,-0.1406,-0.1431,-0.1449,-0.1476,-0.1515,-0.15,-0.1527,-0.1531,-0.1534,-0.1532,-0.1542,-0.1545,-0.1515,-0.1515,-0.1515,0,0,-0.1147,-0.1174,-0.1193,-0.1235,-0.1258,-0.1282,-0.1285,-0.1324,-0.1342,-0.1357,-0.1397,-0.1422,-0.1448,-0.1484,-0.1506,-0.1498,-0.1529,-0.154,-0.1541,-0.1538,-0.1547,-0.1549,-0.1551,-0.1519,-0.1518,-0.1517,0,0,-0.1167,-0.1199,-0.1228,-0.125,-0.1293,-0.1307,-0.1322,-0.1359,-0.1373,-0.1422,-0.143,-0.1459,-0.1515,-0.1514,-0.1525,-0.1575,-0.155,-0.1598,-0.16,-0.161,-0.1611,-0.1612,-0.1556,-0.1552,-0.1598,-0.1598,-0.1598,0,-0.1174,-0.1208,-0.124,-0.1267,-0.1286,-0.1318,-0.1342,-0.1363,-0.1413,-0.1433,-0.144,-0.1513,-0.1519,-0.1547,-0.1556,-0.1576,-0.157,-0.1568,-0.1609,-0.161,-0.1612,-0.1554,-0.155,-0.1598,-0.1598,-0.1598,-0.1598,0,-0.1202,-0.1233,-0.1253,-0.1294,-0.1321,-0.135,-0.138,-0.1413,-0.1441,-0.1464,-0.1514,-0.1531,-0.1572,-0.1574,-0.1575,-0.1595,-0.158,-0.1607,-0.1582,-0.1612,-0.1551,-0.1547,-0.1597,-0.1597,-0.1597,-0.1597,0,0,-0.1202,-0.126,-0.1267,-0.1287,-0.1336,-0.1361,-0.1398,-0.1437,-0.1469,-0.1511,-0.1545,-0.1569,-0.1589,-0.1604,-0.1607,-0.1604,-0.1574,-0.1612,-0.1612,-0.1527,-0.1559,-0.146,-0.1445,-0.1621,-0.1622,-0.1622,-0.1495,0,-0.121,-0.1252,-0.1284,-0.1326,-0.1345,-0.1387,-0.1416,-0.1463,-0.1503,-0.1547,-0.1565,-0.1603,-0.1598,-0.1617,-0.1616,-0.1598,-0.1573,-0.1603,-0.1568,-0.1565,-0.1451,-0.1441,-0.1624,-0.1492,-0.1491,-0.149,-0.1489,0,-0.1216,-0.1243,-0.1278,-0.1335,-0.1351,-0.1385,-0.1445,-0.1478,-0.1542,-0.1576,-0.1623,-0.1648,-0.1644,-0.1646,-0.1606,-0.1636,-0.1595,-0.1567,-0.1563,-0.1477,-0.1461,-0.1471,-0.1482,-0.1483,-0.1483,-0.1484,-0.1484,0,-0.1179,-0.124,-0.1265,-0.1283,-0.135,-0.1383,-0.1425,-0.1492,-0.1517,-0.1595,-0.1621,-0.1657,-0.1657,-0.1642,-0.1583,-0.1606,-0.1527,-0.1551,-0.141,-0.14,-0.1533,-0.1534,-0.1518,-0.1518,-0.1518,-0.1518,-0.1519,0,-0.1154,-0.1182,-0.1255,-0.1266,-0.1304,-0.137,-0.1416,-0.1469,-0.1535,-0.1556,-0.1632,-0.1637,-0.1665,-0.1631,-0.1585,-0.1465,-0.1525,-0.1389,-0.1368,-0.1524,-0.1526,-0.1526,-0.1529,-0.1513,-0.1515,-0.1515,-0.1516,0,-0.11,-0.1147,-0.1182,-0.1258,-0.1283,-0.1312,-0.1389,-0.142,-0.1496,-0.1522,-0.1541,-0.1608,-0.1577,-0.1563,-0.1512,-0.1435,-0.1351,-0.1295,-0.141,-0.1401,-0.1208,-0.1212,-0.1114,-0.1109,-0.1106,-0.1103,-0.11,0,-0.1073,-0.1084,-0.1157,-0.1171,-0.1206,-0.1258,-0.1286,-0.138,-0.1404,-0.1478,-0.1474,-0.1493,-0.1517,-0.1337,-0.1365,-0.1256,-0.1246,-0.1159,-0.1225,-0.118,-0.117,-0.118,-0.1189,-0.1094,-0.1093,-0.1092,-0.1091,0,-0.1012,-0.1047,-0.1068,-0.109,-0.1125,-0.1153,-0.1204,-0.1205,-0.1296,-0.1379,-0.1347,-0.132,-0.1289,-0.1262,-0.1187,-0.1121,-0.1198,-0.112,-0.1128,-0.119,-0.1156,-0.1152,-0.1164,-0.1078,-0.108,-0.1081,-0.1082,0,-0.0965,-0.0959,-0.0985,-0.0994,-0.1028,-0.1026,-0.1071,-0.1085,-0.1113,-0.1204,-0.1186,-0.1217,-0.1275,-0.1188,-0.1121,-0.1052,-0.1039,-0.0965,-0.0981,-0.0996,-0.1022,-0.0966,-0.0792,0,0,0,0,0,-0.0911,-0.0886,-0.0886,-0.0882,-0.0911,-0.0929,-0.1001,-0.1053,-0.1137,-0.107,-0.1122,-0.109,-0.1026,-0.1052,-0.0956,-0.1074,-0.1045,-0.0953,-0.0971,-0.1007,-0.1022,-0.1068,0,0,0,0,0,0,-0.0869,-0.0867,-0.0848,-0.0779,-0.0757,-0.0777,-0.0817,-0.0884,-0.0859,-0.095,-0.0933,-0.0983,-0.0958,-0.1055,-0.0922,-0.0922,-0.0895,-0.0976,-0.0971,-0.0999,-0.1012,-0.1024,-0.1077,0,0,0,0,0]},{"header":{"parameterUnit":"m.s-1","parameterCategory":2,"la1":30.2991,"la2":30.254,"lo1":-89.0895,"lo2":-89.0444,"dy":0.0017,"dx":0.0017,"nx":28,"ny":28,"refTime":"2024-07-31T03:00:00:Z","depth":"4","parameterNumber":3,"parameterNumberName":"V-component_of_CURRENTS"},"data":[0,0,0,0,0,0,0,0,0,0,0,0,0,0,0,0,0,0,0,0,0,0,0,0,0,0,0,0,0,0,0,0,0,0,0,0,0,0,0,0,0,0,0,0,0,0,0,0,0,0,0,0,0,0,0,0,0,0,-0.0231,-0.0231,0,-0.0235,-0.0235,-0.0236,-0.0239,-0.0239,-0.0239,-0.0239,-0.0202,-0.0201,-0.02,0,0,0,0,0,0,0,0,0,0,0,0,0,-0.025,-0.025,-0.0231,-0.0231,-0.0231,-0.0235,-0.0235,-0.0236,-0.0239,-0.0239,-0.0239,-0.0239,-0.0202,-0.0201,-0.02,0,0,0,0,0,0,0,0,0,0,0,0,0,-0.0248,-0.0249,-0.0231,-0.0232,-0.0232,-0.0235,-0.0235,-0.0236,-0.0239,-0.0239,-0.0239,-0.0239,-0.0203,-0.0201,-0.02,-0.0196,0,0,-0.0196,-0.0196,0,0,0,0,0,0,0,0,-0.0248,-0.0248,-0.0232,-0.0232,-0.0232,-0.0235,-0.0228,-0.022,-0.0239,-0.0239,-0.0239,-0.0239,-0.0208,-0.0206,-0.0211,-0.0194,-0.0193,-0.0196,-0.0195,-0.0195,-0.0194,0,0,0,0,0,0,0,-0.0249,-0.0248,-0.0235,-0.0232,-0.0232,-0.024,-0.0239,-0.0227,-0.0225,-0.0239,-0.0239,-0.0236,-0.0208,-0.0212,-0.021,-0.0192,-0.0196,-0.0195,-0.0194,-0.0194,-0.0159,-0.0159,0,0,0,0,0,0,-0.0243,-0.0248,-0.0235,-0.0235,-0.0238,-0.0239,-0.0239,-0.0236,-0.0226,-0.0224,-0.0236,-0.0236,-0.0215,-0.0211,-0.0208,-0.0208,-0.0195,-0.0193,-0.0193,-0.0159,-0.0159,-0.0159,0,0,0,0,0,0,-0.0243,-0.0242,-0.0235,-0.024,-0.0239,-0.0239,-0.0235,-0.0236,-0.0243,-0.0224,-0.0222,-0.0243,-0.0214,-0.021,-0.0195,-0.0206,-0.0193,-0.0192,-0.0159,-0.0159,-0.0159,-0.0203,0,0,0,0,0,0,-0.0244,-0.0242,-0.0245,-0.0239,-0.0239,-0.0243,-0.0235,-0.0236,-0.0241,-0.0241,-0.0229,-0.0225,-0.0214,-0.0197,-0.0194,-0.0204,-0.0191,-0.0159,-0.0159,-0.0159,-0.0201,-0.0204,-0.0206,0,0,0,0,0,-0.0245,-0.0251,-0.0245,-0.0244,-0.024,-0.0244,-0.0245,-0.0245,-0.0241,-0.025,-0.0233,-0.0226,-0.0193,-0.0196,-0.0192,-0.0202,-0.0159,-0.0159,-0.0159,-0.02,-0.0204,-0.0206,0,0,0,0,0,0,-0.0262,-0.0251,-0.0245,-0.0248,-0.0247,-0.0244,-0.0251,-0.0248,-0.0245,-0.0242,-0.0224,-0.0219,-0.0213,-0.0196,-0.0199,-0.0189,-0.0175,-0.0174,-0.0208,-0.0211,-0.0213,-0.0207,-0.019,0,0,0,0,0,-0.0265,-0.0267,-0.0257,-0.026,-0.0259,-0.0255,-0.0258,-0.0258,-0.025,-0.0249,-0.0238,-0.0221,-0.0209,-0.02,-0.0189,-0.0181,-0.0139,-0.0183,-0.0185,-0.0187,-0.0178,-0.0115,-0.0111,-0.0157,-0.0157,-0.0157,0,0,-0.0272,-0.0267,-0.0267,-0.0264,-0.0263,-0.0266,-0.0257,-0.0263,-0.0267,-0.0243,-0.0244,-0.0232,-0.0209,-0.0204,-0.0199,-0.019,-0.0155,-0.0187,-0.0189,-0.0179,-0.0115,-0.011,-0.0106,-0.0157,-0.0157,-0.0157,0,0,-0.0288,-0.028,-0.0288,-0.0289,-0.0287,-0.0282,-0.0283,-0.0281,-0.0281,-0.0276,-0.0262,-0.0249,-0.0233,-0.0218,-0.0207,-0.0211,-0.0173,-0.0214,-0.0218,-0.0158,-0.0154,-0.0149,-0.0101,-0.0092,-0.0211,-0.0211,-0.0211,0,-0.0297,-0.0302,-0.0293,-0.0301,-0.0301,-0.0288,-0.0296,-0.0295,-0.0289,-0.0284,-0.028,-0.0248,-0.0238,-0.0218,-0.0225,-0.0218,-0.0177,-0.0214,-0.0161,-0.0156,-0.015,-0.0102,-0.0091,-0.0213,-0.0213,-0.0213,-0.0213,0,-0.0318,-0.0324,-0.0329,-0.0329,-0.0329,-0.0335,-0.0324,-0.0328,-0.032,-0.0311,-0.0294,-0.0272,-0.0246,-0.025,-0.0241,-0.0206,-0.0188,-0.0176,-0.0155,-0.0148,-0.0098,-0.0086,-0.0216,-0.0215,-0.0215,-0.0214,0,0,-0.033,-0.0341,-0.0344,-0.0353,-0.0344,-0.0351,-0.0348,-0.0342,-0.034,-0.0325,-0.0307,-0.0294,-0.0272,-0.0256,-0.024,-0.0196,-0.0138,-0.0173,-0.0169,-0.0129,-0.0005,-0.0038,-0.0028,-0.0113,-0.0111,-0.011,0.0011,0,-0.0349,-0.0375,-0.0369,-0.039,-0.0398,-0.0385,-0.0384,-0.0377,-0.0359,-0.0339,-0.0302,-0.0282,-0.0275,-0.0263,-0.0215,-0.0155,-0.0106,-0.0172,-0.0014,-0.001,-0.0043,-0.0015,-0.0103,0.002,0.0023,0.0025,0.0027,0,-0.037,-0.0384,-0.0408,-0.0421,-0.0423,-0.0432,-0.0425,-0.0425,-0.0387,-0.0371,-0.0329,-0.0291,-0.023,-0.0222,-0.0095,-0.0134,-0.0071,-0.0023,-0.0017,-0.0021,-0.0021,0.0016,0.0049,0.0047,0.0046,0.0044,0.0043,0,-0.0389,-0.0412,-0.0434,-0.0439,-0.0448,-0.0459,-0.0461,-0.0437,-0.0437,-0.0384,-0.037,-0.0278,-0.0241,-0.0134,-0.0042,-0.0055,0.0105,0.0103,0.0134,0.0133,0.0146,0.014,0.0204,0.0204,0.0203,0.0203,0.0203,0,-0.0406,-0.0429,-0.0452,-0.0467,-0.0498,-0.0488,-0.0506,-0.0497,-0.0466,-0.0456,-0.0388,-0.0358,-0.0216,-0.0115,-0.002,0.0095,0.0132,0.0146,0.0168,0.0122,0.0112,0.0154,0.0147,0.0208,0.0207,0.0206,0.0205,0,-0.0426,-0.0439,-0.0476,-0.05,-0.0512,-0.0537,-0.0555,-0.0559,-0.0531,-0.051,-0.0492,-0.0399,-0.0268,-0.0127,0.0048,0.0103,0.0228,0.0257,0.0198,0.0213,0.0212,0.0201,0.0318,0.0318,0.0318,0.0318,0.0318,0,-0.044,-0.0459,-0.051,-0.054,-0.0557,-0.059,-0.0608,-0.0595,-0.0589,-0.0542,-0.0525,-0.0409,-0.0331,-0.0098,0.0036,0.0241,0.0246,0.0307,0.0258,0.0217,0.0228,0.0216,0.0206,0.0318,0.0318,0.0318,0.0318,0,-0.0467,-0.0488,-0.0519,-0.0576,-0.0613,-0.0647,-0.0665,-0.0663,-0.0633,-0.0616,-0.0534,-0.0421,-0.0281,-0.0105,0.0051,0.0185,0.0271,0.0306,0.0307,0.0262,0.0218,0.0226,0.0216,0.0317,0.0317,0.0317,0.0318,0,-0.0494,-0.0522,-0.0563,-0.0608,-0.0655,-0.0677,-0.0688,-0.0665,-0.0653,-0.0585,-0.0561,-0.0414,-0.0321,-0.0135,0.0008,0.0144,0.0162,0.0183,0.019,0.0191,0.0104,0.0027,0.0098,0,0,0,0,0,-0.0517,-0.0544,-0.059,-0.0637,-0.0678,-0.0699,-0.0711,-0.0706,-0.0677,-0.0617,-0.0582,-0.0446,-0.0247,-0.0168,-0.0033,-0.0007,0.0177,0.0149,0.0202,0.0317,0.0317,0.023,0,0,0,0,0,0,-0.0539,-0.0582,-0.0592,-0.0641,-0.0672,-0.071,-0.0715,-0.0696,-0.0651,-0.0609,-0.0492,-0.0442,-0.0234,-0.0313,-0.0037,-0.0,0.0042,0.0246,0.0248,0.0317,0.0317,0.0317,0.0228,0,0,0,0,0]}]]